ROSLDG Weather Reports


time (UTC)temp
C
wind
direction
speed
KPH
gust
KPH
rain 1hr
cm
rain 24hr
cm
rain mn
cm
humidity
%
barometer
mb
20210920054317 13 0 0.0 0.0 0.00 0.41 0.30 100
20210920053315 14 0 0.0 0.0 0.00 0.41 0.30 100
20210920052815 14 0 0.0 0.0 0.03 0.41 0.30 100
20210920052317 14 0 0.0 0.0 0.03 0.41 0.30 100
20210920051816 14 0 0.0 0.0 0.03 0.41 0.30 100
20210920051317 14 0 0.0 0.0 0.03 0.41 0.30 100
20210920050816 14 0 0.0 0.0 0.03 0.41 0.30 100
20210920050316 14 0 0.0 0.0 0.03 0.41 0.30 100
20210920045817 14 0 0.0 0.0 0.03 0.43 0.30 100
20210920045316 14 0 0.0 0.0 0.03 0.43 0.30 100
20210920044816 14 0 0.0 0.0 0.03 0.43 0.30 100
20210920043317 14 0 0.0 0.0 0.03 0.43 0.30 100
20210920042816 14 0 0.0 0.0 0.00 0.43 0.30 100
20210920042317 14 0 0.0 0.0 0.00 0.43 0.28 100
20210920041816 14 0 0.0 0.0 0.00 0.43 0.28 100
20210920041317 14 0 0.0 0.0 0.00 0.43 0.28 99
20210920040816 14 0 0.0 0.0 0.00 0.43 0.28 99
20210920040316 15 0 0.0 0.0 0.00 0.43 0.28 99
20210920035816 15 0 0.0 0.0 0.00 0.48 0.28 99
20210920035316 15 0 0.0 0.0 0.00 0.48 0.28 99
20210920034816 15 0 0.0 0.0 0.00 0.48 0.28 98
20210920034317 15 0 0.0 0.0 0.00 0.48 0.28 98
20210920033816 15 0 0.0 0.0 0.00 0.48 0.28 98
20210920033316 15 0 0.0 0.0 0.00 0.48 0.28 98
20210920032816 15 0 0.0 0.0 0.00 0.48 0.28 98
20210920032316 15 0 0.0 0.0 0.00 0.48 0.28 98
20210920031816 15 0 0.0 0.0 0.00 0.48 0.28 98
20210920031317 15 0 0.0 0.0 0.00 0.48 0.28 98
20210920030816 15 0 0.0 0.0 0.00 0.48 0.28 97
20210920030316 15 0 0.0 0.0 0.00 0.48 0.28 97
20210920025816 15 0 0.0 0.0 0.00 0.56 0.28 97
20210920025316 15 0 0.0 0.0 0.00 0.56 0.28 97
20210920024816 15 0 0.0 0.0 0.03 0.56 0.28 97
20210920024316 15 0 0.0 0.0 0.03 0.56 0.28 97
20210920023816 15 0 0.0 0.0 0.03 0.56 0.28 96
20210920023317 15 0 0.0 0.0 0.03 0.56 0.28 96
20210920022816 15 0 0.0 0.0 0.03 0.56 0.28 96
20210920022316 15 0 0.0 0.0 0.03 0.56 0.28 96
20210920021816 15 0 0.0 0.0 0.03 0.56 0.28 96
20210920021317 15 0 0.0 0.0 0.03 0.56 0.28 96
20210920020816 15 0 0.0 0.0 0.03 0.56 0.28 96
20210920020316 15 0 0.0 0.0 0.03 0.56 0.28 95
20210920015816 15 0 0.0 0.0 0.03 0.61 0.28 95
20210920015316 15 0 0.0 0.0 0.03 0.61 0.28 95
20210920014816 15 0 0.0 0.0 0.00 0.61 0.25 95
20210920013816 15 0 0.0 0.0 0.00 0.61 0.25 95
20210920013316 15 0 0.0 0.0 0.00 0.61 0.25 94
20210920012816 15 0 0.0 0.0 0.00 0.61 0.25 94
20210920012316 15 0 0.0 0.0 0.00 0.61 0.25 94
20210920011816 15 0 0.0 0.0 0.00 0.61 0.25 93
20210920011317 16 0 0.0 0.0 0.00 0.61 0.25 93
20210920010817 16 0 0.0 0.0 0.00 0.61 0.25 92
20210920010316 16 0 0.0 0.0 0.00 0.61 0.25 91
20210920005816 16 0 0.0 0.0 0.00 0.69 0.25 91
20210920005315 16 0 0.0 0.0 0.00 0.69 0.25 90
20210920004816 16 0 0.0 0.0 0.00 0.69 0.25 90
20210920004316 16 0 0.0 0.0 0.00 0.69 0.25 90
20210920003816 16 0 0.0 0.0 0.00 0.69 0.25 89
20210920003316 16 0 0.0 0.0 0.00 0.69 0.25 88
20210920002816 16 226 0.0 4.8 0.03 0.69 0.25 88
20210920002315 16 222 0.0 14.5 0.03 0.69 0.25 88
20210920001816 16 75 0.0 4.8 0.03 0.69 0.25 88
20210920001316 16 0 0.0 0.0 0.03 0.69 0.25 87
20210920000816 16 75 0.0 3.2 0.03 0.69 0.25 87
20210920000316 16 75 0.0 6.4 0.03 0.69 0.25 87
20210919235816 16 0 0.0 0.0 0.03 0.74 0.25 87
20210919235318 16 0 0.0 0.0 0.03 0.74 0.25 86
20210919234816 16 191 0.0 3.2 0.03 0.74 0.25 86
20210919234316 16 191 0.0 4.8 0.03 0.74 0.25 85
20210919233816 17 194 1.6 11.3 0.03 0.74 0.25 84
20210919233315 17 0 0.0 0.0 0.03 0.74 0.25 85
20210919232815 17 0 0.0 0.0 0.00 0.74 0.25 85
20210919232318 17 50 0.0 4.8 0.00 0.74 0.23 84
20210919231816 17 23 0.0 1.6 0.00 0.74 0.23 84
20210919231317 17 357 0.0 4.8 0.00 0.74 0.23 83
20210919230816 17 357 0.0 6.4 0.00 0.74 0.23 83
20210919230316 17 357 0.0 3.2 0.00 0.74 0.23 83
20210919225816 17 352 0.0 1.6 0.00 0.81 0.23 82
20210919225317 17 0 0.0 0.0 0.00 0.81 0.23 82
20210919224316 17 36 0.0 6.4 0.00 0.81 0.23 81
20210919223816 17 147 0.0 4.8 0.00 0.81 0.23 82
20210919223316 17 357 0.0 6.4 0.00 0.81 0.23 83
20210919222816 17 0 0.0 0.0 0.00 0.81 0.23 83
20210919222316 17 357 0.0 1.6 0.00 0.81 0.23 83
20210919221816 17 30 0.0 3.2 0.03 0.81 0.23 82
20210919221315 17 357 0.0 6.4 0.03 0.81 0.23 81
20210919220816 17 33 0.0 6.4 0.03 0.81 0.23 82
20210919220315 17 357 0.0 4.8 0.03 0.81 0.23 82
20210919215816 17 357 0.0 3.2 0.03 1.60 0.23 83
20210919215316 17 50 0.0 4.8 0.03 1.60 0.23 83
20210919214954 17 29 1.6 9.7 0.03 1.60 0.23 83
20210919214816 17 29 1.6 9.7 0.03 1.60 0.23 83
20210919214318 17 0 0.0 0.0 0.03 1.60 0.23 85
20210919213816 17 29 0.0 4.8 0.03 1.60 0.23 85
20210919213316 16 0 0.0 0.0 0.03 1.60 0.23 85
20210919212816 16 0 0.0 0.0 0.03 1.60 0.23 84
20210919212316 17 29 0.0 6.4 0.03 1.60 0.23 84
20210919211816 17 357 0.0 8.0 0.00 1.60 0.23 85
20210919211316 17 0 0.0 0.0 0.00 1.60 0.20 85
20210919210817 17 357 0.0 1.6 0.00 1.60 0.20 86
20210919210316 17 0 0.0 0.0 0.00 1.60 0.20 87
20210919205816 16 357 0.0 3.2 0.00 1.60 0.20 86
20210919205316 16 0 0.0 0.0 0.00 1.60 0.20 86
20210919204816 16 0 0.0 0.0 0.00 1.60 0.20 88
20210919203951 16 357 0.0 6.4 0.00 1.60 0.20 88
20210919203816 16 357 0.0 6.4 0.00 1.60 0.20 88
20210919203316 16 22 0.0 1.6 0.00 1.60 0.20 88
20210919202816 16 0 0.0 0.0 0.00 1.60 0.20 88
20210919201816 16 78 0.0 4.8 0.00 1.60 0.20 89
20210919201316 16 78 0.0 4.8 0.00 1.60 0.20 92
20210919200816 16 0 0.0 0.0 0.00 1.60 0.20 93
20210919200316 16 78 0.0 1.6 0.00 1.60 0.20 93
20210919195816 16 0 0.0 0.0 0.03 1.60 0.20 95
20210919195316 16 0 0.0 0.0 0.03 1.60 0.20 95
20210919194816 15 0 0.0 0.0 0.03 1.60 0.20 97
20210919194316 15 0 0.0 0.0 0.03 1.60 0.20 97
20210919193816 15 0 0.0 0.0 0.03 1.60 0.20 97
20210919193316 15 0 0.0 0.0 0.03 1.60 0.20 98
20210919192817 15 0 0.0 0.0 0.03 1.60 0.20 99
20210919192316 15 0 0.0 0.0 0.03 1.60 0.20 99
20210919191816 15 0 0.0 0.0 0.03 1.60 0.20 100
20210919191316 15 0 0.0 0.0 0.03 1.60 0.20 100
20210919190816 15 0 0.0 0.0 0.03 1.60 0.20 100
20210919190315 15 0 0.0 0.0 0.03 1.60 0.20 100
20210919185815 15 0 0.0 0.0 0.00 1.57 0.20 100
20210919185316 15 0 0.0 0.0 0.00 1.57 0.18 100
20210919184818 15 0 0.0 0.0 0.00 1.57 0.18 100
20210919184316 15 0 0.0 0.0 0.00 1.57 0.18 100
20210919183816 15 0 0.0 0.0 0.00 1.57 0.18 100
20210919183316 15 105 0.0 3.2 0.00 1.57 0.18 100
20210919182816 15 105 0.0 4.8 0.00 1.57 0.18 100
20210919182315 15 0 0.0 0.0 0.00 1.57 0.18 100
20210919181815 15 0 0.0 0.0 0.00 1.57 0.18 100
20210919181316 15 0 0.0 0.0 0.00 1.57 0.18 100
20210919180816 15 0 0.0 0.0 0.00 1.57 0.18 100
20210919180315 14 0 0.0 0.0 0.00 1.57 0.18 100
20210919175816 14 0 0.0 0.0 0.00 1.57 0.18 100
20210919175315 14 0 0.0 0.0 0.00 1.57 0.18 100
20210919174816 14 0 0.0 0.0 0.00 1.57 0.18 100
20210919174316 14 0 0.0 0.0 0.00 1.57 0.18 100
20210919173817 14 0 0.0 0.0 0.00 1.57 0.18 100
20210919172816 14 0 0.0 0.0 0.00 1.57 0.18 100
20210919172315 13 0 0.0 0.0 0.00 1.57 0.18 100
20210919171815 13 0 0.0 0.0 0.00 1.57 0.18 100
20210919171316 13 0 0.0 0.0 0.00 1.57 0.18 100
20210919170815 13 0 0.0 0.0 0.00 1.57 0.18 100
20210919165816 13 0 0.0 0.0 0.00 1.57 0.18 100
20210919165315 13 0 0.0 0.0 0.00 1.57 0.18 100
20210919164815 13 0 0.0 0.0 0.03 1.57 0.18 100
20210919164315 13 0 0.0 0.0 0.03 1.57 0.18 100
20210919163815 13 0 0.0 0.0 0.03 1.57 0.18 100
20210919163315 12 0 0.0 0.0 0.03 1.57 0.18 100
20210919162815 12 0 0.0 0.0 0.03 1.57 0.18 100
20210919162315 12 0 0.0 0.0 0.03 1.57 0.18 100
20210919161815 13 0 0.0 0.0 0.03 1.57 0.18 100
20210919161315 13 0 0.0 0.0 0.03 1.57 0.18 100
20210919160815 13 0 0.0 0.0 0.03 1.57 0.18 100
20210919160316 12 0 0.0 0.0 0.03 1.57 0.18 100
20210919155815 12 0 0.0 0.0 0.03 1.55 0.18 100
20210919155315 12 0 0.0 0.0 0.03 1.55 0.18 100
20210919154815 12 0 0.0 0.0 0.00 1.55 0.15 100
20210919154315 12 0 0.0 0.0 0.00 1.55 0.15 100
20210919153816 12 0 0.0 0.0 0.00 1.55 0.15 100
20210919153315 12 0 0.0 0.0 0.00 1.55 0.15 100
20210919152814 11 0 0.0 0.0 0.00 1.55 0.15 100
20210919152315 11 0 0.0 0.0 0.00 1.55 0.15 100
20210919151814 11 0 0.0 0.0 0.00 1.55 0.15 100
20210919151316 11 0 0.0 0.0 0.00 1.55 0.15 100
20210919150816 11 0 0.0 0.0 0.00 1.55 0.15 100
20210919150315 11 0 0.0 0.0 0.00 1.55 0.15 100
20210919145815 11 0 0.0 0.0 0.03 1.55 0.15 100
20210919145314 11 0 0.0 0.0 0.03 1.55 0.15 100
20210919144814 11 0 0.0 0.0 0.03 1.55 0.15 100
20210919144314 11 0 0.0 0.0 0.03 1.55 0.15 100
20210919143816 11 0 0.0 0.0 0.03 1.55 0.15 100
20210919143315 11 0 0.0 0.0 0.03 1.55 0.15 100
20210919142816 11 0 0.0 0.0 0.03 1.55 0.15 100
20210919142316 11 0 0.0 0.0 0.03 1.55 0.15 100
20210919141814 11 0 0.0 0.0 0.03 1.55 0.15 100
20210919141314 11 0 0.0 0.0 0.03 1.55 0.15 100
20210919140815 11 0 0.0 0.0 0.03 1.55 0.15 100
20210919140314 11 0 0.0 0.0 0.03 1.55 0.15 100
20210919135815 11 0 0.0 0.0 0.00 1.52 0.13 100
20210919135315 11 0 0.0 0.0 0.00 1.52 0.13 100
20210919134814 11 0 0.0 0.0 0.00 1.52 0.13 100
20210919134315 11 0 0.0 0.0 0.00 1.52 0.13 100
20210919133815 11 0 0.0 0.0 0.00 1.52 0.13 100
20210919133315 11 0 0.0 0.0 0.00 1.52 0.13 100
20210919132814 11 0 0.0 0.0 0.03 1.52 0.13 100
20210919132315 11 0 0.0 0.0 0.03 1.52 0.13 100
20210919131814 11 0 0.0 0.0 0.03 1.52 0.13 100
20210919131315 11 0 0.0 0.0 0.03 1.52 0.13 100
20210919130816 11 0 0.0 0.0 0.03 1.52 0.13 100
20210919130315 11 0 0.0 0.0 0.03 1.52 0.13 100
20210919125815 11 0 0.0 0.0 0.03 1.50 0.13 100
20210919125314 11 0 0.0 0.0 0.03 1.50 0.13 100
20210919124814 11 0 0.0 0.0 0.03 1.50 0.13 100
20210919124314 11 0 0.0 0.0 0.03 1.50 0.13 100
20210919123814 11 0 0.0 0.0 0.03 1.50 0.13 100
20210919123315 11 0 0.0 0.0 0.03 1.50 0.13 100
20210919122815 11 0 0.0 0.0 0.00 1.50 0.13 100
20210919122316 11 0 0.0 0.0 0.00 1.50 0.10 100
20210919121815 11 0 0.0 0.0 0.03 1.50 0.10 100
20210919121315 11 0 0.0 0.0 0.03 1.50 0.10 100
20210919120814 11 0 0.0 0.0 0.03 1.50 0.10 100
20210919120314 11 0 0.0 0.0 0.03 1.50 0.10 100
20210919115815 11 0 0.0 0.0 0.03 1.47 0.10 100
20210919115314 12 0 0.0 0.0 0.03 1.47 0.10 100
20210919114816 12 0 0.0 0.0 0.03 1.47 0.10 100
20210919114314 12 0 0.0 0.0 0.03 1.47 0.10 100
20210919113815 12 0 0.0 0.0 0.03 1.47 0.10 100
20210919113315 12 0 0.0 0.0 0.03 1.47 0.10 100
20210919112814 12 0 0.0 0.0 0.03 1.47 0.10 100
20210919112314 12 0 0.0 0.0 0.03 1.47 0.10 100
20210919111814 12 0 0.0 0.0 0.00 1.47 0.10 100
20210919111314 12 0 0.0 0.0 0.00 1.47 0.08 100
20210919110816 12 0 0.0 0.0 0.03 1.47 0.08 100
20210919110314 12 0 0.0 0.0 0.03 1.47 0.08 100
20210919105814 12 0 0.0 0.0 0.03 1.45 0.08 100
20210919105314 12 0 0.0 0.0 0.03 1.45 0.08 100
20210919104816 12 0 0.0 0.0 0.03 1.45 0.08 100
20210919104316 12 0 0.0 0.0 0.03 1.45 0.08 100
20210919103814 12 0 0.0 0.0 0.03 1.45 0.08 100
20210919103314 12 0 0.0 0.0 0.03 1.45 0.08 100
20210919102816 12 0 0.0 0.0 0.03 1.45 0.08 100
20210919102315 12 0 0.0 0.0 0.03 1.45 0.08 100
20210919101816 12 0 0.0 0.0 0.03 1.45 0.08 100
20210919101315 12 0 0.0 0.0 0.03 1.45 0.08 100
20210919100814 12 0 0.0 0.0 0.03 1.45 0.08 100
20210919100314 12 0 0.0 0.0 0.03 1.45 0.05 100
20210919095815 12 0 0.0 0.0 0.03 1.42 0.05 100
20210919095314 12 0 0.0 0.0 0.03 1.42 0.05 100
20210919094814 12 0 0.0 0.0 0.03 1.42 0.05 100
20210919094315 12 0 0.0 0.0 0.03 1.42 0.05 100
20210919093814 12 0 0.0 0.0 0.03 1.42 0.05 100
20210919093316 12 0 0.0 0.0 0.03 1.42 0.05 100
20210919092815 12 0 0.0 0.0 0.03 1.42 0.05 100
20210919092314 12 0 0.0 0.0 0.03 1.42 0.05 100
20210919091815 12 0 0.0 0.0 0.03 1.42 0.05 100
20210919091315 12 0 0.0 0.0 0.03 1.42 0.05 100
20210919090815 12 0 0.0 0.0 0.03 1.42 0.03 100
20210919090315 12 0 0.0 0.0 0.03 1.42 0.03 100
20210919085814 12 0 0.0 0.0 0.03 1.40 0.03 100
20210919085315 12 0 0.0 0.0 0.03 1.40 0.03 100
20210919084816 12 0 0.0 0.0 0.03 1.40 0.03 100
20210919084314 12 0 0.0 0.0 0.03 1.40 0.03 100
20210919083814 12 0 0.0 0.0 0.03 1.40 0.03 100
20210919083315 12 0 0.0 0.0 0.03 1.40 0.03 100
20210919082815 12 0 0.0 0.0 0.05 1.40 0.03 100
20210919082315 12 0 0.0 0.0 0.05 1.40 0.03 100
20210919081815 12 0 0.0 0.0 0.05 1.40 0.03 100
20210919081314 12 0 0.0 0.0 0.05 1.40 0.03 100
20210919080314 12 0 0.0 0.0 0.03 1.40 0.00 100
20210919075815 12 0 0.0 0.0 0.03 1.37 0.00 100
20210919075314 12 0 0.0 0.0 0.03 1.37 1.40 100
20210919074814 12 0 0.0 0.0 0.03 1.37 1.40 100
20210919074315 12 0 0.0 0.0 0.03 1.37 1.40 100
20210919073815 12 0 0.0 0.0 0.05 1.37 1.40 100
20210919073314 12 0 0.0 0.0 0.05 1.37 1.40 100
20210919072314 12 0 0.0 0.0 0.03 1.37 1.37 100
20210919071815 12 0 0.0 0.0 0.03 1.37 1.37 100
20210919071314 12 0 0.0 0.0 0.03 1.37 1.37 100
20210919070814 12 0 0.0 0.0 0.03 1.37 1.37 100
20210919070314 12 0 0.0 0.0 0.03 1.37 1.37 100
20210919065814 12 0 0.0 0.0 0.05 1.35 1.37 99
20210919065315 12 0 0.0 0.0 0.05 1.35 1.37 99
20210919064816 12 0 0.0 0.0 0.05 1.35 1.37 99
20210919064314 12 0 0.0 0.0 0.05 1.35 1.37 98
20210919063815 12 0 0.0 0.0 0.03 1.35 1.37 98
20210919063314 12 0 0.0 0.0 0.03 1.35 1.35 97
20210919062815 12 0 0.0 0.0 0.03 1.35 1.35 97
20210919062315 12 0 0.0 0.0 0.03 1.35 1.35 97
20210919061814 12 0 0.0 0.0 0.05 1.35 1.35 96
20210919061315 12 0 0.0 0.0 0.05 1.35 1.35 96
20210919060814 13 0 0.0 0.0 0.05 1.35 1.35 96
20210919060314 13 0 0.0 0.0 0.05 1.35 1.35 96
20210919055815 13 0 0.0 0.0 0.03 1.30 1.35 96
20210919055314 13 0 0.0 0.0 0.03 1.30 1.32 95
20210919054814 13 0 0.0 0.0 0.05 1.30 1.32 95